This demonstration page uses our WeatherBlox Daily Observations layout. Learn more.

Left ArrowRight Arrow

Hourly Observations for May 9, 2021

Temp ( °F °C ) Dew Point ( °F °C ) Humidity (%) Winds ( mph kmh ) Pressure ( in mb ) Visibility ( mi km ) Precip ( " mm )
12:15 am 00:15 Partly Cloudy 43 6 38 3.3 83 83 N 14 22 29.90 1012 10 16 N/A
12:35 am 00:35 Cloudy 43 6.2 38 3.3 82 82 N 18 30 29.90 1012 10 16 N/A
12:55 am 00:55 Cloudy 43 6.2 38 3.3 82 82 N 24 39 29.90 1012 10 16 N/A
1:15 am 01:15 Cloudy 43 6.2 38 3.5 83 83 N 20 31 29.91 1013 10 16 N/A
1:35 am 01:35 Cloudy 43 6.3 38 3.5 82 82 N 22 35 29.94 1014 10 16 N/A
1:55 am 01:55 Cloudy 43 6.3 38 3.5 82 82 N 14 22 29.96 1014 10 16 N/A
2:15 am 02:15 Cloudy 43 6.3 38 3.5 82 82 N 18 30 29.95 1014 10 16 N/A
2:35 am 02:35 Cloudy 43 6.2 38 3.6 84 84 N 17 28 29.96 1014 10 16 N/A
2:55 am 02:55 Cloudy 43 6 39 4 87 87 N 20 31 29.96 1015 10 16 N/A
3:15 am 03:15 Cloudy 43 6 39 4.1 88 88 N 16 26 29.96 1015 7 11 N/A
3:35 am 03:35 Cloudy 42 5.7 40 4.5 92 92 N 16 26 29.97 1015 7 11 N/A
3:55 am 03:55 Cloudy with Mist and Fog 42 5.6 40 4.5 93 93 N 15 24 29.98 1015 5 8 N/A
4:15 am 04:15 Cloudy with Mist and Fog 42 5.5 40 4.5 93 93 N 16 26 29.98 1015 5 8 N/A
4:35 am 04:35 Cloudy 42 5.5 40 4.4 93 93 N 14 22 29.99 1016 10 16 N/A
4:55 am 04:55 Cloudy 42 5.6 40 4.2 91 91 N 16 26 30.00 1016 10 16 N/A
5:15 am 05:15 Cloudy 42 5.6 39 4 90 90 N 16 26 30.00 1016 10 16 N/A
5:35 am 05:35 Cloudy 42 5.6 39 4 90 90 N 17 28 30.01 1016 10 16 N/A
5:55 am 05:55 Cloudy 42 5.7 39 3.9 88 88 N 14 22 30.01 1016 10 16 N/A
6:15 am 06:15 Cloudy 42 5.8 39 3.8 87 87 N 14 22 30.02 1017 10 16 N/A
6:35 am 06:35 Cloudy 43 5.9 39 3.7 86 86 N 20 31 30.03 1017 10 16 N/A
6:55 am 06:55 Cloudy 42 5.5 38 3.6 88 88 N 15 24 30.05 1018 10 16 N/A
7:15 am 07:15 Cloudy 42 5.5 38 3.5 87 87 N 12 19 30.06 1018 10 16 N/A
7:35 am 07:35 Cloudy 42 5.7 38 3.4 85 85 N 15 24 30.07 1018 10 16 N/A
7:55 am 07:55 Cloudy 42 5.5 38 3.3 86 86 N 17 28 30.08 1019 10 16 N/A
8:15 am 08:15 Cloudy 42 5.5 38 3.6 88 88 N 17 28 30.10 1019 10 16 N/A
8:35 am 08:35 Cloudy with Mist and Fog 42 5.3 39 3.7 90 90 N 17 28 30.10 1019 4 6 N/A
8:55 am 08:55 Cloudy 42 5.8 39 4 88 88 N 20 31 30.11 1020 10 16 N/A
9:15 am 09:15 Cloudy 42 5.5 39 3.8 89 89 N 16 26 30.12 1020 10 16 N/A
9:35 am 09:35 Cloudy 42 5.8 39 4 88 88 N 16 26 30.12 1020 10 16 N/A
9:55 am 09:55 Cloudy 42 5.8 39 3.8 87 87 N 15 24 30.13 1020 10 16 N/A
10:15 am 10:15 Cloudy 42 5.8 38 3.6 86 86 N 14 22 30.13 1020 10 16 N/A
10:35 am 10:35 Cloudy 43 6.1 38 3.6 84 84 NNE 15 24 30.15 1021 10 16 N/A
10:55 am 10:55 Cloudy 43 6.3 38 3.5 82 82 N 9 15 30.16 1021 10 16 N/A
11:15 am 11:15 Cloudy 44 6.5 38 3.6 82 82 N 14 22 30.15 1021 10 16 N/A
11:35 am 11:35 Cloudy 44 6.7 38 3.6 81 81 N 14 22 30.15 1021 10 16 N/A
11:55 am 11:55 Cloudy 44 6.8 39 3.7 81 81 NNE 17 28 30.15 1021 10 16 N/A
12:15 pm 12:15 Cloudy 44 6.9 39 3.8 81 81 NNE 16 26 30.14 1021 10 16 N/A
12:35 pm 12:35 Cloudy 45 7.1 39 3.9 80 80 N 15 24 30.14 1021 10 16 N/A
12:55 pm 12:55 Cloudy 46 7.6 39 4 78 78 NE 12 19 30.14 1021 10 16 N/A
1:15 pm 13:15 Cloudy 46 7.8 39 3.7 76 76 NNE 13 20 30.14 1021 10 16 N/A
1:35 pm 13:35 Cloudy 46 8 39 3.8 75 75 NNE 14 22 30.14 1021 10 16 N/A
1:55 pm 13:55 Cloudy 47 8.3 38 3.6 73 73 NNE 12 19 30.13 1020 10 16 N/A
2:15 pm 14:15 Cloudy 48 8.7 38 3.6 71 71 NNE 15 24 30.12 1020 10 16 N/A
2:35 pm 14:35 Cloudy 50 9.8 40 4.2 68 68 NE 10 17 30.10 1019 10 16 N/A
2:55 pm 14:55 Cloudy 50 10.2 39 3.8 65 65 N 10 17 30.10 1019 10 16 N/A
3:15 pm 15:15 Cloudy 50 10.1 38 3.2 63 63 N 10 17 30.10 1019 10 16 N/A
3:35 pm 15:35 Cloudy 50 9.8 38 3.2 64 64 N 10 17 30.09 1019 10 16 N/A
3:55 pm 15:55 Cloudy 50 10.2 37 2.9 61 61 NNE 10 17 30.09 1019 10 16 N/A
4:15 pm 16:15 Cloudy 51 10.5 38 3.2 61 61 N 7 11 30.09 1019 10 16 N/A
4:35 pm 16:35 Cloudy 50 10.2 37 3 61 61 NE 8 13 30.09 1019 10 16 N/A
4:55 pm 16:55 Cloudy 51 10.3 37 3 61 61 ENE 12 19 30.09 1019 10 16 N/A
5:15 pm 17:15 Cloudy 51 10.5 37 2.8 59 59 NNE 10 17 30.09 1019 10 16 N/A
5:35 pm 17:35 Cloudy 51 10.3 37 2.8 60 60 NE 8 13 30.10 1019 10 16 N/A
5:55 pm 17:55 Cloudy 51 10.4 37 2.9 60 60 NE 9 15 30.10 1019 10 16 N/A
6:15 pm 18:15 Cloudy 51 10.3 37 2.6 59 59 ENE 8 13 30.10 1019 10 16 N/A
6:35 pm 18:35 Cloudy 50 10.2 37 2.7 60 60 ENE 8 13 30.11 1020 10 16 N/A
6:55 pm 18:55 Cloudy 50 10 37 2.7 61 61 E 7 11 30.11 1020 10 16 N/A
7:15 pm 19:15 Cloudy 50 9.9 37 2.5 60 60 NE 8 13 30.11 1020 10 16 N/A
7:35 pm 19:35 Mostly Cloudy 50 9.8 36 2.4 60 60 NE 9 15 30.11 1020 10 16 N/A
7:55 pm 19:55 Cloudy 50 9.8 37 2.5 61 61 NE 9 15 30.12 1020 10 16 N/A
8:15 pm 20:15 Mostly Cloudy 49 9.3 36 2.1 61 61 NE 9 15 30.13 1020 10 16 N/A
8:35 pm 20:35 Partly Cloudy 48 8.7 36 2.1 64 64 NNE 6 9 30.13 1020 10 16 N/A
8:55 pm 20:55 Clear 46 7.7 35 1.9 67 67 NE 6 9 30.15 1021 10 16 N/A
9:15 pm 21:15 Partly Cloudy 45 7.2 35 1.7 68 68 N N/A 30.18 1022 10 16 N/A
9:35 pm 21:35 Partly Cloudy 46 7.6 35 1.8 67 67 N N/A 30.18 1022 10 16 N/A
9:55 pm 21:55 Clear 45 7.2 35 1.6 68 68 N N/A 30.20 1023 10 16 N/A
10:15 pm 22:15 Clear 43 6.3 35 1.5 72 72 N N/A 30.21 1023 10 16 N/A
10:35 pm 22:35 Clear 45 7 35 1.8 70 70 N N/A 30.20 1023 10 16 N/A
10:55 pm 22:55 Clear 43 6.2 35 1.5 72 72 N N/A 30.21 1023 10 16 N/A
11:15 pm 23:15 Clear 43 6.1 35 1.6 73 73 N N/A 30.21 1023 10 16 N/A
11:35 pm 23:35 Clear 41 5.1 35 1.6 78 78 N N/A 30.22 1023 10 16 N/A
11:55 pm 23:55 Clear 40 4.7 35 1.5 80 80 N N/A 30.22 1023 10 16 N/A

Powered by AerisWeather